Find Starlink 37107

NORAD ID: 68294 Int'l Des: 2026-057 Owner: SPXS Country: US Constellation: starlink operational
LEOCIRCULARRETROGRADE

Live Position

Loading 3D Globe...

About Starlink 37107

Description loading...

Upcoming Passes

Passes for default location (London). Set your location on the main map for personalized predictions.

Altitude History

Loading altitude history...

Two-Line Element Set

1 68294U 26057A 26125.29769436 .00221846 00000-0 14432-2 0 9990
2 68294 97.2861 250.5181 0001284 83.5157 276.6254 15.75296666 7192
Epoch: May 5, 2026 • Age: 16 hours

Current Status

Altitude 366.0 km
Velocity 7.69 km/s
Sub-Earth Point -57.20°S, 154.91°W
Launch Date Mar 20, 2026
Age 0.1 years
Type internet

Technical Details

Classification Payload
Mass 575.00 kg
Dry Mass 530.00 kg
Total Mass 575.00 kg
Length 0.30 m
Diameter 4.10 m
Span 29.00 m
Shape Box + pan
Manufacturer SPXS
Bus Type Starlink V2MO
Phase Status In Orbit
Owner/State SPXS/US

Most Searched